• In Österreich
  • Länderverzeichnis
  • Für 7 Tage
  • Wassertemperatur
  • Satellitenkarten
  • Wetterkarte
  • News
  • Widgets
  • user-avatar
    Anmelden

    Stündliche Wetter Lezhe

    Heute, 19 Dezember, Dienstag

    Zeit Temperatur Niederschläge Wind Luftdruck Luftfeuchtigkeit
    00:00 -2°C° 0 mm 3 m/S 741 mmHg 84%
    01:00 -2°C° 0 mm 3 m/S 741 mmHg 84%
    02:00 -2°C° 0 mm 3 m/S 742 mmHg 83%
    03:00 -4°C° 0 mm 3 m/S 742 mmHg 83%
    04:00 -4°C° 0 mm 3 m/S 742 mmHg 83%
    05:00 -4°C° 0 mm 3 m/S 743 mmHg 82%
    06:00 -4°C° 0 mm 3 m/S 743 mmHg 81%
    07:00 -5°C° 0 mm 3 m/S 744 mmHg 81%
    08:00 -2°C° 0 mm 3 m/S 744 mmHg 77%
    09:00 -1°C° 0 mm 3 m/S 745 mmHg 73%
    10:00 +1°C° 0 mm 3 m/S 745 mmHg 70%
    11:00 +1°C° 0 mm 3 m/S 745 mmHg 68%
    12:00 +2°C° 0 mm 3 m/S 745 mmHg 66%
    13:00 +2°C° 0 mm 3 m/S 745 mmHg 64%
    14:00 +1°C° 0 mm 3 m/S 745 mmHg 68%
    15:00 +1°C° 0 mm 2 m/S 745 mmHg 71%
    16:00 -1°C° 0 mm 2 m/S 746 mmHg 74%
    17:00 -1°C° 0 mm 2 m/S 746 mmHg 75%
    18:00 -2°C° 0 mm 3 m/S 746 mmHg 76%
    19:00 -4°C° 0 mm 3 m/S 746 mmHg 78%
    20:00 -4°C° 0 mm 3 m/S 746 mmHg 78%
    21:00 -4°C° 0 mm 3 m/S 746 mmHg 78%
    22:00 -4°C° 0 mm 3 m/S 747 mmHg 78%
    23:00 -4°C° 0 mm 3 m/S 747 mmHg 79%

    Morgen, 20 Dezember, Mittwoch

    Zeit Temperatur Niederschläge Wind Luftdruck Luftfeuchtigkeit
    00:00 -4°C° 0 mm 3 m/S 747 mmHg 79%
    01:00 -5°C° 0 mm 3 m/S 747 mmHg 79%
    02:00 -5°C° 0 mm 3 m/S 747 mmHg 79%
    03:00 -5°C° 0 mm 3 m/S 746 mmHg 79%
    04:00 -5°C° 0 mm 3 m/S 746 mmHg 78%
    05:00 -5°C° 0 mm 3 m/S 746 mmHg 78%
    06:00 -5°C° 0 mm 3 m/S 747 mmHg 77%
    07:00 -5°C° 0 mm 3 m/S 747 mmHg 77%
    08:00 -4°C° 0 mm 3 m/S 747 mmHg 73%
    09:00 -1°C° 0 mm 3 m/S 747 mmHg 70%
    10:00 0°C° 0 mm 3 m/S 747 mmHg 67%
    11:00 +1°C° 0 mm 3 m/S 746 mmHg 65%
    12:00 +2°C° 0 mm 3 m/S 746 mmHg 63%
    13:00 +4°C° 0 mm 2 m/S 745 mmHg 60%
    14:00 +3°C° 0 mm 2 m/S 745 mmHg 64%
    15:00 +1°C° 0 mm 2 m/S 745 mmHg 68%
    16:00 -1°C° 0 mm 2 m/S 745 mmHg 72%
    17:00 -1°C° 0 mm 2 m/S 745 mmHg 73%
    18:00 -2°C° 0 mm 2 m/S 746 mmHg 74%
    19:00 -4°C° 0 mm 3 m/S 746 mmHg 75%
    20:00 -4°C° 0 mm 3 m/S 746 mmHg 74%
    21:00 -4°C° 0 mm 3 m/S 746 mmHg 74%
    22:00 -5°C° 0 mm 3 m/S 747 mmHg 73%
    23:00 -5°C° 0 mm 3 m/S 746 mmHg 73%

    übermorgen, 21 Dezember, Donnerstag

    Zeit Temperatur Niederschläge Wind Luftdruck Luftfeuchtigkeit
    00:00 -5°C° 0 mm 3 m/S 746 mmHg 72%
    01:00 -5°C° 0 mm 3 m/S 746 mmHg 72%
    02:00 -5°C° 0 mm 3 m/S 746 mmHg 72%
    03:00 -5°C° 0 mm 3 m/S 746 mmHg 71%
    04:00 -5°C° 0 mm 3 m/S 746 mmHg 71%
    05:00 -5°C° 0 mm 3 m/S 746 mmHg 70%
    06:00 -5°C° 0 mm 3 m/S 746 mmHg 70%
    07:00 -5°C° 0 mm 3 m/S 746 mmHg 70%
    08:00 -4°C° 0 mm 3 m/S 746 mmHg 68%
    09:00 -1°C° 0 mm 3 m/S 746 mmHg 65%
    10:00 0°C° 0 mm 3 m/S 746 mmHg 63%
    11:00 +1°C° 0 mm 3 m/S 746 mmHg 61%
    12:00 +2°C° 0 mm 3 m/S 746 mmHg 60%
    13:00 +3°C° 0 mm 3 m/S 746 mmHg 59%
    14:00 +1°C° 0 mm 3 m/S 745 mmHg 63%
    15:00 0°C° 0 mm 3 m/S 745 mmHg 67%
    16:00 -1°C° 0 mm 3 m/S 745 mmHg 71%
    17:00 -2°C° 0 mm 3 m/S 745 mmHg 72%
    18:00 -4°C° 0 mm 3 m/S 746 mmHg 72%
    19:00 -4°C° 0 mm 3 m/S 746 mmHg 73%
    20:00 -4°C° 0 mm 3 m/S 746 mmHg 72%
    21:00 -5°C° 0 mm 3 m/S 746 mmHg 71%
    22:00 -5°C° 0 mm 3 m/S 746 mmHg 69%
    23:00 -5°C° 0 mm 3 m/S 746 mmHg 68%

    22 Dezember, Freitag

    Zeit Temperatur Niederschläge Wind Luftdruck Luftfeuchtigkeit
    00:00 -4°C° 0 mm 3 m/S 746 mmHg 66%
    01:00 -4°C° 0 mm 3 m/S 746 mmHg 65%
    02:00 -4°C° 0 mm 3 m/S 745 mmHg 63%
    03:00 -4°C° 0 mm 3 m/S 745 mmHg 61%
    04:00 -4°C° 0 mm 3 m/S 744 mmHg 60%
    05:00 -4°C° 0 mm 3 m/S 744 mmHg 59%
    06:00 -2°C° 0 mm 3 m/S 744 mmHg 58%
    07:00 -2°C° 0 mm 3 m/S 744 mmHg 57%
    08:00 0°C° 0 mm 3 m/S 744 mmHg 57%
    09:00 +2°C° 0 mm 3 m/S 744 mmHg 56%
    10:00 +4°C° 0 mm 3 m/S 743 mmHg 56%
    11:00 +5°C° 0 mm 3 m/S 743 mmHg 57%
    12:00 +5°C° 0 mm 3 m/S 742 mmHg 59%
    13:00 +7°C° 0 mm 3 m/S 742 mmHg 61%
    14:00 +5°C° 0 mm 3 m/S 741 mmHg 64%
    15:00 +4°C° 0 mm 3 m/S 741 mmHg 68%
    16:00 +3°C° 0 mm 4 m/S 741 mmHg 71%
    17:00 +1°C° 0 mm 4 m/S 741 mmHg 72%
    18:00 0°C° 0 mm 4 m/S 741 mmHg 72%
    19:00 0°C° 0 mm 4 m/S 741 mmHg 73%
    20:00 0°C° 0 mm 4 m/S 741 mmHg 73%
    21:00 -1°C° 0 mm 4 m/S 741 mmHg 73%
    22:00 -1°C° 0 mm 4 m/S 740 mmHg 73%
    23:00 -1°C° 0 mm 4 m/S 740 mmHg 74%

    23 Dezember, Samstag

    Zeit Temperatur Niederschläge Wind Luftdruck Luftfeuchtigkeit
    00:00 -1°C° 0 mm 4 m/S 740 mmHg 74%
    01:00 -1°C° 0 mm 4 m/S 739 mmHg 74%
    02:00 -1°C° 0 mm 4 m/S 739 mmHg 74%
    03:00 -1°C° 0 mm 4 m/S 738 mmHg 75%
    04:00 -1°C° 0 mm 4 m/S 738 mmHg 75%
    05:00 -1°C° 0 mm 4 m/S 738 mmHg 75%
    06:00 -1°C° 0 mm 4 m/S 738 mmHg 76%
    07:00 -1°C° 0 mm 4 m/S 738 mmHg 76%
    08:00 0°C° 0 mm 4 m/S 738 mmHg 72%
    09:00 +1°C° 0 mm 4 m/S 738 mmHg 68%
    10:00 +2°C° 0 mm 5 m/S 738 mmHg 65%
    11:00 +3°C° 0 mm 4 m/S 737 mmHg 62%
    12:00 +4°C° 0 mm 3 m/S 737 mmHg 59%
    13:00 +4°C° 0 mm 3 m/S 737 mmHg 56%
    14:00 +3°C° 0 mm 3 m/S 737 mmHg 59%
    15:00 +2°C° 0 mm 3 m/S 737 mmHg 63%
    16:00 +1°C° 0 mm 3 m/S 737 mmHg 66%
    17:00 0°C° 0 mm 3 m/S 738 mmHg 67%
    18:00 -1°C° 0 mm 4 m/S 738 mmHg 69%
    19:00 -1°C° 0 mm 4 m/S 739 mmHg 70%
    20:00 -2°C° 0 mm 4 m/S 739 mmHg 70%
    21:00 -2°C° 0 mm 4 m/S 739 mmHg 70%
    22:00 -2°C° 0 mm 5 m/S 739 mmHg 71%
    23:00 -3°C° 0 mm 4 m/S 739 mmHg 70%

    24 Dezember, Sonntag

    Zeit Temperatur Niederschläge Wind Luftdruck Luftfeuchtigkeit
    00:00 -3°C° 0 mm 4 m/S 740 mmHg 70%
    01:00 -3°C° 0 mm 4 m/S 740 mmHg 70%
    02:00 -3°C° 0 mm 4 m/S 740 mmHg 70%
    03:00 -3°C° 0 mm 4 m/S 741 mmHg 70%
    04:00 -4°C° 0 mm 4 m/S 741 mmHg 71%
    05:00 -4°C° 0 mm 4 m/S 742 mmHg 72%
    06:00 -4°C° 0 mm 4 m/S 743 mmHg 73%
    07:00 -4°C° 0 mm 4 m/S 744 mmHg 73%
    08:00 -3°C° 0 mm 4 m/S 744 mmHg 69%
    09:00 -1°C° 0 mm 4 m/S 745 mmHg 65%
    10:00 0°C° 0 mm 4 m/S 746 mmHg 61%
    11:00 0°C° 0 mm 4 m/S 746 mmHg 59%
    12:00 +1°C° 0 mm 4 m/S 746 mmHg 57%
    13:00 +2°C° 0 mm 3 m/S 746 mmHg 56%
    14:00 +1°C° 0 mm 3 m/S 746 mmHg 59%
    15:00 0°C° 0 mm 3 m/S 746 mmHg 63%
    16:00 -1°C° 0 mm 2 m/S 747 mmHg 66%
    17:00 -1°C° 0 mm 2 m/S 747 mmHg 66%
    18:00 -2°C° 0 mm 2 m/S 748 mmHg 66%
    19:00 -3°C° 0 mm 2 m/S 748 mmHg 67%
    20:00 -3°C° 0 mm 2 m/S 748 mmHg 64%
    21:00 -3°C° 0 mm 2 m/S 749 mmHg 61%
    22:00 -3°C° 0 mm 2 m/S 749 mmHg 58%
    23:00 -2°C° 0 mm 2 m/S 749 mmHg 56%
    Mehr zeigen